Tracking 22879 objects as of 20-Apr-2021
HD Live streaming from Space Station
objects crossing your sky now

COSMOS 637

Track COSMOS 637 now!
COSMOS 637 is classified as:


NORAD ID: 7229
Int'l Code: 1974-017A
Perigee: 35,484.9 km
Apogee: 35,823.6 km
Inclination: 5.6 °
Period: 1,429.0 minutes
Semi major axis: 42025 km
RCS: 2.5118 m2 (large)
Launch date: March 26, 1974
Source: Commonwealth of Independent States (former USSR) (CIS)
Launch site: TYURATAM MISSILE AND SPACE COMPLEX (TTMTR)
aabbcc
Your satellite tracking list
Your tracking list is empty




NASA's NSSDC Master Catalog

Two Line Element Set (TLE):
1 07229U 74017A   21109.80680297  .00000034  00000-0  00000-0 0  9999
2 07229   5.5958 289.9567 0040303  12.8136   3.1243  1.00771424103217
Source of the keplerian elements: AFSPC